Location: Rock Island IL
(41.5000°N, 90.5500°W)
Time: 09:44:52
(UTC-06:00)

Daily predictions for brighter satellites

Satellite Brightness Start Highest point End
(mag) Time Altitude Azimuth Time Altitude Azimuth Time Altitude Azimuth
BREEZE-M DEB (TANK) 4.1 17:20:56 10° WNW 17:24:13 68° SSW 17:34:58 10° SE
USA 116 4.3 17:26:26 10° NNE 17:30:30 48° E 17:35:02 10° S
CZ-2C R/B 4.2 17:25:57 10° NNE 17:30:30 44° E 17:34:56 10° S
Lacrosse 5 rocket 4.4 17:32:10 10° WNW 17:35:42 23° WSW 17:39:19 10° S
Cosmos 2341 Rocket 4.0 17:30:47 10° N 17:37:00 62° E 17:43:14 10° SSE
Meteor 2-10 4.2 17:34:57 10° N 17:39:48 45° ENE 17:44:40 10° SSE
SMAP 3.3 17:35:18 10° S 17:39:56 79° WSW 17:44:38 10° NNW
Cosmos 1354 Rocket 4.1 17:35:16 10° NNW 17:40:36 88° ENE 17:45:56 10° SSE
Cosmos 1674 2.8 17:37:47 10° S 17:41:33 79° W 17:45:19 10° N
Okean 3 Rocket 4.1 17:40:18 10° SSE 17:44:33 40° E 17:48:47 10° NNE
Ariane Rocket 3.3 17:41:50 10° S 17:46:53 76° WSW 17:51:59 10° NNW
CZ-4 R/B 1.5 17:44:37 10° SSE 17:48:50 88° W 17:53:07 10° NNW
Cosmos 2263 4.2 17:43:56 10° NNW 17:49:42 64° ENE 17:55:22 10° SE
SPOT 3 Rocket 4.1 17:45:42 10° SE 17:50:21 36° ENE 17:55:02 10° N
Landsat 4 4.3 17:46:52 10° NNE 17:50:21 35° E 17:53:48 10° SSE
IRAS Rocket 4.5 17:47:05 10° SSE 17:52:36 77° WSW 17:58:12 10° NNW
Cosmos 2154 Rocket 4.5 17:47:54 10° NNW 17:54:10 68° W 18:00:25 10° S
OAO 3 Rocket 4.3 17:51:08 10° SW 17:55:22 34° S 17:59:40 10° ESE
SKYMED 2 3.7 17:51:28 10° NNE 17:55:45 54° E 18:00:00 10° S
SL-14 R/B 3.5 17:55:56 10° S 17:59:48 49° E 18:03:38 10° NNE
Cosmos 2369 Rocket 2.4 17:54:18 10° NNW 17:59:58 78° WSW 18:05:39 10° SSE
Cosmos 2181 Rocket 4.0 17:55:52 10° S 18:02:18 81° E 18:08:46 10° N
Cosmos 1626 3.3 18:01:31 10° SE 18:04:28 23° E 18:05:54 18° ENE
YAOGAN 1 2.6 18:00:30 10° SSE 18:04:49 85° WSW 18:09:10 10° NNW
Cosmos 1300 2.7 18:02:14 10° N 18:06:01 56° E 18:09:46 10° SSE
GEOS 3 Rocket 4.3 18:06:07 10° ESE 18:10:47 35° NE 18:15:39 10° NNW
Meteor 2-16 Rocket 4.4 18:04:57 10° N 18:11:05 85° E 18:17:12 10° S
Cosmos 1656 Rocket 4.0 18:10:39 10° N 18:15:47 40° ENE 18:20:57 10° SE
TSX-5 4.0 18:14:26 10° S 18:17:18 33° ESE 18:18:05 29° E
Cosmos 1943 Rocket 2.2 18:13:16 10° NNW 18:18:53 83° WSW 18:24:25 10° SSE
MONITOR-E 4.1 18:16:00 10° SSE 18:19:02 88° W 18:22:06 10° NNW
Cosmos 1315 Rocket 2.8 18:15:28 10° S 18:19:19 54° E 18:22:57 11° NNE
ERS-2 2.3 18:16:55 10° SSE 18:20:28 48° ENE 18:24:03 10° N
ALOS 2.3 18:19:12 10° SSE 18:23:51 87° WSW 18:28:33 10° NNW
Cosmos 1346 Rocket 3.4 18:22:06 10° N 18:25:40 31° ENE 18:26:30 28° E
SL-8 Rocket 4.0 18:19:29 10° N 18:25:42 86° W 18:31:55 10° S
Cosmos 2218 Rocket 3.9 18:20:32 10° N 18:26:45 81° E 18:32:52 10° S
Cosmos 2098 Rocket 4.0 18:22:32 10° N 18:27:14 40° E 18:33:01 10° SSE
NOAA 12 4.0 18:22:15 10° SSE 18:27:28 85° ENE 18:32:45 10° NNW
Meteor 1-11 4.5 18:22:20 10° SSE 18:27:36 45° E 18:32:56 10° NNE
Cosmos 2221 3.8 18:26:59 10° NNW 18:31:08 44° W 18:35:17 10° SSW
Tiangong 1 0.7 18:30:04 10° W 18:32:19 57° NNW 18:32:19 57° NNW
Cosmos 968 Rocket 3.9 18:33:11 10° NNW 18:38:17 62° WSW 18:43:19 10° S
FENGYUN 3A 4.0 18:35:06 10° S 18:40:25 67° WSW 18:45:46 10° NNW
Cosmos 1408 Rocket 3.3 18:36:13 10° S 18:40:30 76° E 18:44:19 13° NNE
COSMOS 2406 3.8 18:38:07 10° SSE 18:43:13 34° ESE 18:43:50 33° E
SL-08 R/B 4.4 18:37:29 10° N 18:43:43 89° ENE 18:49:51 10° S
COSMO-SKYMED 1 3.7 18:39:38 10° N 18:43:46 43° WNW 18:47:52 10° SW
ATLAS 2AS CENTAUR R/B 3.9 18:36:26 10° NW 18:43:52 47° WSW 18:50:43 10° S
FengYun 1-2 T 4.2 18:38:23 10° SSE 18:43:57 65° ENE 18:49:31 10° N
H-2A R/B 2.5 18:41:33 10° SSE 18:45:18 73° ENE 18:49:09 10° N
Cosmos 2228 Rocket 3.8 18:42:10 10° N 18:52:48 - SSE 18:45:27 36° NE
Cosmos 1328 4.2 18:46:25 10° SSW 18:50:23 62° W 18:54:22 10° N
SL-24 R/B - RUBIN 2 3.4 18:47:01 10° NNW 18:51:33 68° NE 18:52:32 50° ESE
Meteor 2-2 Rocket 4.3 18:47:22 10° NNW 18:53:09 81° W 18:58:48 10° S
Cosmos 2058 3.7 18:56:08 10° S 18:58:51 37° SSE 18:58:51 37° SSE
Cosmos 2151 3.9 18:58:46 10° S 19:01:19 34° SSE 19:01:19 34° SSE
Cosmos 1743 Rocket 3.7 19:01:29 10° S 19:05:05 56° SSE 19:05:05 56° SSE
NOSS 3-4 (A) 3.7 18:59:36 10° NNW 19:06:41 81° NE 19:12:08 21° SE
NOSS 3-4 (C) 3.7 18:59:42 10° NNW 19:06:47 80° NE 19:12:07 21° SE
Meteor 2-15 4.4 19:02:45 10° SSE 19:08:41 55° E 19:09:49 48° NE
Thor Agena Rocket 3.4 19:10:58 54° NE 19:12:04 72° ESE 19:17:17 10° S
Cosmos 1821 Rocket 3.9 19:07:27 10° N 19:13:31 57° E 19:19:36 10° SSE
Cosmos 44 3.1 19:09:27 10° SW 19:13:43 69° WNW 19:14:01 66° NNW
Cosmos 1328 Rocket 3.7 19:09:35 10° NNW 19:13:58 73° W 19:18:17 10° S
Cosmos 1703 4.0 19:17:40 10° SSW 19:21:02 53° WSW 19:21:02 53° WSW
Nadezhda 3 Rocket 4.0 19:16:36 10° S 19:22:54 87° W 19:29:19 10° N
Cosmos 909 Rocket 3.9 19:23:44 10° NNW 19:30:36 69° NE 19:30:38 69° ENE
Cosmos 44 Rocket 3.8 19:30:29 10° SW 19:34:45 55° WNW 19:34:45 55° WNW
OAO 3 Rocket 4.5 19:34:06 10° WSW 19:37:32 33° SSW 19:37:32 33° SSW
USA 81 4.5 19:37:02 10° SSW 19:42:14 60° W 19:43:26 47° NNW
